<?xml version="1.0"?>
<rss version="2.0">
   <channel>
   <title>[RADIOCOMM LIST]</title>
   <link>https://aus-city.com/cgi-bin/dada/mail.cgi/list/RADIOCOMM_LIST/</link>
   <description>Radio Comm Report list.  Deals with all modes of communications in the 150 KHz to 1300 MHz, including solar and atmospheric conditions.</description>
   <language>en-us</language>
   <lastBuildDate>Thu, 24 Sep 2026 06:22:00 GMT</lastBuildDate>
   <generator>Pro Dada v11.22.0 stable 2023-09-18</generator>
   
    
	 
		<item>
		 <title> [Keps] orb26261.2l.amsat</title>
		 <link>https://aus-city.com/cgi-bin/dada/mail.cgi/archive/RADIOCOMM_LIST/20260917174530/</link>
		 <description>&#60;p&#62;SB KEPS @ AMSAT  $ORB26261.1
2Line Orbital Elements 26261.AMSAT&#60;/p&#62;

&#60;p&#62;QST de W1STR&#60;/p&#62;

&#60;p&#62;AMSAT Orbital Elements for Amateur Satellites in TLE Format&#60;/p&#62;

&#60;blockquote&#62;
  &#60;p&#62;From Orbital Analysis Office
  New England Sci-Tech STEM Education Center
  Natick MA September 18, 2026
  To all radio amateurs&#60;/p&#62;
&#60;/blockquote&#62;

&#60;p&#62;These element sets describe the orbits of various satellites 
in use by the amateur radio community. For details see:
www.amsat.org/keplerian-elements-formats/&#60;/p&#62;

&#60;p&#62;A daily update of element sets is available at:
www.amsat.org/tle/daily-bulletin.txt
or without bulletin text:
www.amsat.org/tle/dailytle.txt&#60;/p&#62;

&#60;p&#62;AO-07
1 07530U 74089B   26260.31119302 -.00000050  00000-0 -23310-4 0  9999
2 07530 101.9920 274.5208 0012017 316.7938 113.0193 12.53699616372069
UO-11
1 14781U 84021B   26260.16937903  .00001183  00000-0  12536-3 0  9993
2 14781  97.8176 224.7824 0006202 233.5754 126.4892 14.90996498270830
LO-19
1 20442U 90005G   26260.34559924  .00000045  00000-0  32977-4 0  9994
2 20442  98.8821 284.6774 0010555 298.4161  61.5958 14.34144278915608
AO-27
1 22825U 93061C   26260.43852500  .00000051  00000-0  36419-4 0  9994
2 22825  98.6792 327.7780 0008329 182.1372 177.9776 14.30961669720190
FO-29
1 24278U 96046B   26260.35777410 -.00000001  00000-0  36346-4 0  9996
2 24278  98.5167  96.5931 0349248 217.1105 140.5423 13.53278167485639
GO-32
1 25397U 98043D   26259.45002355  .00000027  00000-0  31729-4 0  9993
2 25397  99.0154 254.5457 0000955   8.8326 351.2868 14.24443026464326
ISS
1 25544U 98067A   26260.49772423  .00006372  00000-0  12306-3 0  9997
2 25544  51.6307 203.2288 0004827 149.9993 210.1273 15.49152308586063
NO-44
1 26931U 01043C   26260.56381621  .00000078  00000-0  60174-4 0  9994
2 26931  67.0532   5.3371 0005779 272.6270  87.4171 14.31984445303679
SO-50
1 27607U 02058C   26260.26249899  .00000760  00000-0  10709-3 0  9995
2 27607  64.5520 204.0671 0071851 245.5590 113.8009 14.83215759278114
CO-55
1 27844U 03031E   26259.00670951  .00000189  00000-0  10060-3 0  9992
2 27844  98.6771 266.4390 0008403 283.8530  76.1714 14.24381755204607
RS-22
1 27939U 03042A   26260.63070104  .00000550  00000-0  92636-4 0  9996
2 27939  98.3480  87.6292 0010967 342.2541  82.4993 14.73602431229168
CO-65
1 32785U 08021C   26260.56838859  .00004703  00000-0  29181-3 0  9992
2 32785  97.8385 244.0104 0010387  77.0546 283.1842 15.10184789999133
CO-66
1 32791U 08021J   26259.44682198  .00019398  00000-0  56191-3 0  9994
2 32791  97.7570 261.9305 0002805  38.4701 321.6741 15.35615262  1273
RS-30
1 32953U 08025A   26260.48732013 -.00000008  00000-0 -13156-3 0  9990
2 32953  82.5015 298.0352 0020692 109.5967 250.7349 12.43182873831168
SRMSAT
1 37841U 11058D   26260.55977231  .00000375  00000-0  59675-4 0  9994
2 37841  19.9709 220.3478 0011918 139.8530  17.2207 14.11592956770887
ZACUBE-1
1 39417U 13066B   26260.37466160  .00004143  00000-0  31729-3 0  9996
2 39417  97.8150 223.1907 0039417 304.6757  55.0755 15.01827714694569
Delfi-N3xt
1 39428U 13066N   26260.23893156  .00004699  00000-0  40232-3 0  9997
2 39428  97.8285 180.5061 0071414 260.2057  99.1095 14.96106389688380
GOMX-1
1 39430U 13066Q   26260.58120684  .00001349  00000-0  20682-3 0  9993
2 39430  97.6434  95.2210 0128758 139.9830 221.0953 14.69702181683487
LO-74
1 39440U 13066AA  26260.35288326  .00003535  00000-0  32376-3 0  9999
2 39440  97.8990 209.7925 0058774  81.8085 278.9795 14.94281049690755
AO-73
1 39444U 13066AE  26260.36264395  .00005366  00000-0  32461-3 0  9993
2 39444  97.8386 233.8616 0033655 248.8780 110.8851 15.10616428693573
DTUSAT-2
1 40030U 14033W   26260.27535074  .00005493  00000-0  28941-3 0  9995
2 40030  98.0925 263.9519 0006028 283.9940  76.0621 15.16045815666633
LILACSAT-2
1 40908U 15049K   26260.73916013  .00015400  00000-0  23641-3 0  9995
2 40908  97.4558 301.2478 0004591 271.9617  88.1111 15.54368450610118
Lapan A3
1 41603U 16040E   26260.59698361  .00002763  00000-0  87206-4 0  9993
2 41603  97.1573 253.7775 0011592  51.0071 309.2203 15.33611510568976
CAS-2T
1 41847U 16066G   26260.21005231  .00000943  00000-0  14145-3 0  9997
2 41847  98.3751 334.8857 0340642 210.1178 148.0038 14.44845683518089
TechnoSat
1 42829U 17042E   26260.38861662  .00003242  00000-0  22936-3 0  9991
2 42829  97.4401  54.6358 0018285 136.3602 223.9075 15.05410538500575
AO-91
1 43017U 17073E   26260.44874050  .00008019  00000-0  34019-3 0  9999
2 43017  97.4547 125.7791 0147498  10.3541 350.0671 15.13944459479346
S-Net D
1 43186U 18014G   26260.54095718  .00004320  00000-0  21932-3 0  9990
2 43186  97.5248 164.7483 0009673  63.7420 296.4807 15.17399659472766
S-Net B
1 43187U 18014H   26260.22456322  .00004226  00000-0  21480-3 0  9991
2 43187  97.5252 164.4232 0010255  60.5796 299.6460 15.17364281472718
S-Net A
1 43188U 18014J   26260.53932839  .00004282  00000-0  21737-3 0  9995
2 43188  97.5264 164.9627 0010142  60.2521 299.9720 15.17408388472767
S-Net C
1 43189U 18014K   26260.55873147  .00004368  00000-0  22190-3 0  9993
2 43189  97.5280 165.0708 0011350  53.2497 306.9777 15.17357516471311
Ten-Koh
1 43677U 18084G   26260.32345956  .00000917  00000-0  72627-4 0  9996
2 43677  98.0727  96.5856 0009705 160.7096 199.4497 15.03249527430009
PO-101
1 43678U 18084H   26260.72267016  .00001216  00000-0  10103-3 0  9994
2 43678  98.1172 101.0049 0011766 218.0214 142.0179 15.00733577430090
QO-100
1 43700U 18090A   26260.50251253  .00000140  00000-0  00000-0 0  9996
2 43700   0.0128 228.9458 0002487 334.7443 359.4831  1.00274167 28601
MinXSS-2
1 43758U 18099A   26260.21083145  .00041047  00000-0  64644-3 0  9997
2 43758  97.4439 339.5879 0005293 280.0297  80.0359 15.53456080428383
AO-95
1 43770U 18099N   26260.11092685  .00011068  00000-0  40168-3 0  9994
2 43770  97.4284 320.0853 0008797  32.9034 327.2752 15.28457103427254
SNUSat 2
1 43782U 18099AA  26260.08492309  .00006525  00000-0  27965-3 0  9992
2 43782  97.3962 312.0887 0009151 342.4197  17.6722 15.23060662427017
SnugLite
1 43784U 18099AC  26260.41016323  .00008595  00000-0  30870-3 0  9997
2 43784  97.3770 313.8502 0001915   0.3587 359.7654 15.28902759427406
ITASat 1
1 43786U 18099AE  26260.40956855  .00005488  00000-0  25707-3 0  9992
2 43786  97.3932 310.0977 0013040  37.0913 323.1221 15.20047140426911
EAGLET 1
1 43790U 18099AJ  26260.09915466  .00003348  00000-0  19020-3 0  9999
2 43790  97.4136 307.3236 0011807  35.4483 324.7531 15.13522474426239
ESEO
1 43792U 18099AL  26260.03773508  .00001549  00000-0  11472-3 0  9998
2 43792  97.3908 293.4721 0012505  26.8433 333.3438 15.04474672425615
JO-97
1 43803U 18099AX  26260.40065680  .00014800  00000-0  41911-3 0  9992
2 43803  97.4026 323.6889 0003874 306.8859  53.2029 15.36373952427770
Suomi 100
1 43804U 18099AY  26260.13127298  .00011752  00000-0  40257-3 0  9992
2 43804  97.4082 320.2609 0008242 321.0073  39.0572 15.30333841427476
ISAT
1 43879U 18111D   26260.60565526  .00575070  14633-3  11983-2 0  9992
2 43879  97.5729 204.6371 0009019 139.5168 220.6782 15.99002675425739
UWE-4
1 43880U 18111E   26259.11397830  .00038701  00000-0  64671-3 0  9997
2 43880  97.5818 192.0676 0006912  20.9331 339.2203 15.51804504424858
Prox-1
1 44339U 19036A   26260.17518043  .00011325  00000-0  10472-2 0  9995
2 44339  23.9937 218.8247 0005307  28.1827 331.8959 14.92537261387223
Taurus 1
1 44530U 19059C   26260.72398811  .00004758  00000-0  75047-3 0  9995
2 44530  98.6505  71.4075 0008816  27.5926 332.5746 14.72910060372269
TO-108
1 44881U 19093C   26260.52843579  .00000145  00000-0  22300-4 0  9997
2 44881  97.7451 330.4755 0014309 137.9411 222.2906 14.86634444365135
RS-44
1 44909U 19096E   26260.10041792  .00000003  00000-0 -26187-4 0  9993
2 44909  82.5169 278.6308 0216390 289.5863  68.1992 12.79749370314108
SALSAT
1 46495U 20068K   26260.27233975  .00006211  00000-0  21035-3 0  9992
2 46495  97.8889 269.0445 0008873 350.2339   9.8727 15.30948902329446
CSS (TIANHE-1)
1 48274U 21035A   26260.59355515  .00018774  00000-0  22880-3 0  9990
2 48274  41.4675 120.9508 0002632 285.8927  74.1621 15.60046604307590
TeikyoSat 4
1 49396U 21102B   26260.05456386  .00001187  00000-0  77185-4 0  9999
2 49396  97.3627 285.9604 0011433 344.6999  15.3883 15.09778561266581
Z-Sat
1 49399U 21102E   26260.38252031  .00003093  00000-0  15125-3 0  9992
2 49399  97.3262 292.9137 0014621 287.4242  72.5394 15.18864365267430
KOSEN 1
1 49402U 21102H   26260.38228331  .00005970  00000-0  22110-3 0  9991
2 49402  97.3103 300.7809 0011817 236.4524 123.5588 15.27960958268094
HO-113
1 50466U 21131B   26260.58801888  .00000449  00000-0  15198-3 0  9995
2 50466  98.4971 352.4748 0004255 165.1142 195.0173 14.41427378248427
SNUGLITE 2
1 52899U 22065F   26260.34090164  .00000693  00000-0  14000-3 0  9997
2 52899  98.2338  45.0867 0008698  94.6190 265.6007 14.64488611224487
UmKA 1 (RS40S)
1 57172U 23091G   26260.44355673  .00005107  00000-0  22829-3 0  9999
2 57172  97.4950 318.7957 0013258 151.2908 208.9060 15.21699008178038
CubeBel-2 (EU11S)
1 57175U 23091K   26260.51949168  .00010599  00000-0  35431-3 0  9992
2 57175  97.4950 324.6488 0010322 141.7360 218.4616 15.31137070178424
